Hourly Data Report for October 04, 2017

All times are specified in Local Standard Time (LST). Add 1 hour to adjust for Daylight Saving Time where and when it is observed.

SUDBURY A
ONTARIO

46°37'32.000" N
80°47'52.000" W
348.40 m
6068153
71730
YSB

Download Data

Hourly Data (October 2017)
Hourly Data Report for October 4, 2017
Temp Definition
°C
Dew Point Temp Definition
°C
Rel Hum Definition
%
Wind Dir Definition
10's deg

Wind Spd Definition
km/h
Visibility Definition
km
Stn Press Definition
kPa
Hmdx Definition


Wind Chill Definition


Weather Definition


TIME
00:00 Legend Double Dagger 18.5 14.9 79 20 19 24.1 97.95     LegendNANA
01:00 Legend Double Dagger 18.8 15.8 82 19 18 24.1 97.87     Cloudy
02:00 Legend Double Dagger 18.3 15.9 86 18 21 24.1 97.80     LegendNANA
03:00 Legend Double Dagger 18.2 16.2 88 19 25 24.1 97.73     LegendNANA
04:00 Legend Double Dagger 18.3 16.5 89 20 23 24.1 97.67     Cloudy
05:00 Legend Double Dagger 18.6 17.5 93 21 22 24.1 97.62     Rain Showers
06:00 Legend Double Dagger 18.9 18.1 95 23 22 24.1 97.64     LegendNANA
07:00 Legend Double Dagger 18.9 18.2 96 24 19 16.1 97.66     Rain Showers
08:00 Legend Double Dagger 18.8 18.2 96 24 20 22.5 97.60     Rain Showers
09:00 Legend Double Dagger 18.2 17.1 93 25 13 32.2 97.61     Rain Showers
10:00 Legend Double Dagger 18.4 15.9 85 28 16 32.2 97.57     Mostly Cloudy
11:00 Legend Double Dagger 19.5 14.1 70 29 23 32.2 97.53     LegendNANA
12:00 Legend Double Dagger 20.8 14.1 65 30 26 32.2 97.48     LegendNANA
13:00 Legend Double Dagger 21.3 12.4 56 29 27 32.2 97.40     Mainly Clear
14:00 Legend Double Dagger 20.0 10.8 55 29 19 32.2 97.39     LegendNANA
15:00 Legend Double Dagger 18.6 8.0 50 28 26 32.2 97.47     LegendNANA
16:00 Legend Double Dagger 18.1 7.7 51 27 24 32.2 97.48     Mainly Clear
17:00 Legend Double Dagger 16.7 7.1 53 26 17 32.2 97.50     LegendNANA
18:00 Legend Double Dagger 14.5 6.4 58 27 14 32.2 97.60     LegendNANA
19:00 Legend Double Dagger 13.1 6.3 63 26 13 24.1 97.68     Mainly Clear
20:00 Legend Double Dagger 11.8 5.8 67 28 10 24.1 97.73     LegendNANA
21:00 Legend Double Dagger 10.5 5.5 71 27 10 24.1 97.77     LegendNANA
22:00 Legend Double Dagger 10.3 4.9 69 27 13 24.1 97.79     Clear
23:00 Legend Double Dagger 9.4 4.9 73 28 10 24.1 97.80     LegendNANA

Notes on Data Quality.

Legend

  • E = Estimated
  • M = Missing
  • NA = Not Available
  • ‡ = Partner data that is not subject to review by the National Climate Archives
Date modified: